Location: Antichan
(42.9728°N, 0.6667°E)
Time: 13:03:16
(UTC+00:00)

ALOS 2 - Pass Details

Date: 15 August 2020
Orbit: 630 x 632 km, 97.9° (Epoch: 25 September)

Event Time Altitude Azimuth Distance (km) Brightness Sun altitude
Exits shadow 23:16:55 29° 0° (N) 1,168 4.4 -32.4°
Drops below altitude 10° 23:19:07 10° 353° (N) 2,023 6.0 -32.5°
Sets 23:21:20 0° 350° (N) 2,936 7.1 -32.6°
